Location: Usti nad Labem
(50.6670°N, 14.0330°E)
Time: 01:28:19
(UTC+02:00)

ISS - Pass Details

Date: 22 April 2025
Orbit: 416 x 420 km, 51.6° (Epoch: 16 May)

Event Time Altitude Azimuth Distance (km) Brightness Sun altitude
Exits shadow 04:29:14 - 178° (S) 1,534 -1.2 -12.7°
Reaches altitude 10° 04:29:26 10° 175° (S) 1,487 -1.3 -12.7°
Maximum altitude 04:31:23 15° 139° (SE) 1,235 -1.3 -12.4°
Drops below altitude 10° 04:33:24 10° 102° (ESE) 1,507 -0.4 -12.2°
Sets 04:36:06 0° 79° (E) 2,363 1.3 -11.8°
